AFL277 UUEE-UWKD

Flight info

Callsign AFL277
Flight time 1h 17m
Altitude 33000
Route KOGOM3J KOGOM L94 EKPIR M864 INKEB L94 UNORO T788 KOROM KOROM1T
Aircraft B738/M-SDE2E3FGHIRWXY/LB1

Departure

Time 2026-05-04 13:43
Airport Sheremetyevo International Airport (UUEE)

Arrival

Time 2026-05-04 15:01
Airport Kazan International Airport (UWKD)
Time Latitude Longitude Altitude Speed Heading
2026-05-04 13:37 55.97755 37.42649 636 ft 0 kts 74°
2026-05-04 13:37 55.97763 37.42708 636 ft 8 kts 76°
2026-05-04 13:37 55.97762 37.42748 636 ft 0 kts 112°
2026-05-04 13:38 55.97761 37.42749 636 ft 0 kts 112°
2026-05-04 13:38 55.97755 37.42770 636 ft 6 kts 128°
2026-05-04 13:38 55.97738 37.42790 636 ft 0 kts 160°
2026-05-04 13:40 55.97716 37.42802 636 ft 9 kts 163°
2026-05-04 13:40 55.97652 37.42833 636 ft 9 kts 165°
2026-05-04 13:41 55.97610 37.42831 636 ft 6 kts 224°
2026-05-04 13:41 55.97597 37.42790 636 ft 0 kts 255°
2026-05-04 13:41 55.97597 37.42787 636 ft 0 kts 254°
2026-05-04 13:42 55.97595 37.42772 636 ft 1 kts 254°
2026-05-04 13:42 55.97594 37.42768 636 ft 0 kts 254°
2026-05-04 13:42 55.97564 37.42571 636 ft 53 kts 254°
2026-05-04 13:42 55.97422 37.41602 636 ft 124 kts 255°
2026-05-04 13:43 55.97178 37.40023 1019 ft 152 kts 255°
2026-05-04 13:43 55.96951 37.38454 1980 ft 145 kts 255°
2026-05-04 13:43 55.96558 37.36838 2549 ft 160 kts 238°
2026-05-04 13:43 55.95864 37.35267 3057 ft 175 kts 234°
2026-05-04 13:44 55.95139 37.33521 3568 ft 190 kts 237°
2026-05-04 13:44 55.94358 37.31497 4078 ft 210 kts 237°
2026-05-04 13:44 55.93533 37.29338 4690 ft 225 kts 237°
2026-05-04 13:44 55.92670 37.27096 5510 ft 230 kts 237°
2026-05-04 13:45 55.91773 37.24822 6395 ft 232 kts 234°
2026-05-04 13:45 55.90684 37.22822 6884 ft 239 kts 218°
2026-05-04 13:45 55.89153 37.21674 6994 ft 247 kts 193°
2026-05-04 13:45 55.87428 37.21671 7009 ft 265 kts 174°
2026-05-04 13:46 55.85669 37.22592 6993 ft 276 kts 155°
2026-05-04 13:46 55.84145 37.24501 6993 ft 281 kts 136°
2026-05-04 13:46 55.83168 37.27280 6995 ft 284 kts 108°
2026-05-04 13:46 55.82928 37.30734 7157 ft 304 kts 83°
2026-05-04 13:47 55.83368 37.34102 8228 ft 296 kts 70°
2026-05-04 13:47 55.84121 37.37259 8825 ft 299 kts 55°
2026-05-04 13:47 55.85487 37.39753 8983 ft 294 kts 28°
2026-05-04 13:47 55.87244 37.41148 8996 ft 287 kts 13°
2026-05-04 13:48 55.89037 37.42220 8994 ft 290 kts 22°
2026-05-04 13:48 55.90607 37.44227 8996 ft 294 kts 41°
2026-05-04 13:48 55.91922 37.46835 8996 ft 298 kts 47°
2026-05-04 13:48 55.93033 37.49681 8992 ft 300 kts 60°
2026-05-04 13:49 55.93626 37.53053 8999 ft 304 kts 80°
2026-05-04 13:49 55.93644 37.56797 9569 ft 315 kts 95°
2026-05-04 13:49 55.93313 37.60433 10655 ft 309 kts 99°
2026-05-04 13:49 55.92885 37.64164 11474 ft 314 kts 101°
2026-05-04 13:50 55.92442 37.67834 12324 ft 318 kts 102°
2026-05-04 13:50 55.91996 37.71556 13143 ft 321 kts 102°
2026-05-04 13:50 55.91370 37.75242 13916 ft 327 kts 112°
2026-05-04 13:50 55.90426 37.78778 14575 ft 333 kts 118°
2026-05-04 13:51 55.89330 37.82261 14847 ft 334 kts 121°
2026-05-04 13:51 55.88216 37.85625 14879 ft 333 kts 121°
2026-05-04 13:51 55.87099 37.89004 14907 ft 331 kts 120°
2026-05-04 13:51 55.86013 37.92346 14855 ft 329 kts 120°
2026-05-04 13:52 55.83821 37.99236 14889 ft 331 kts 119°
2026-05-04 13:52 55.82766 38.02590 14854 ft 329 kts 119°
2026-05-04 13:52 55.81729 38.05889 14887 ft 330 kts 119°
2026-05-04 13:53 55.80705 38.09251 14889 ft 330 kts 116°
2026-05-04 13:53 55.79916 38.12844 14875 ft 328 kts 104°
2026-05-04 13:53 55.79629 38.16882 15005 ft 346 kts 89°
2026-05-04 13:54 55.79776 38.25298 15848 ft 360 kts 85°
2026-05-04 13:54 55.79901 38.29615 15893 ft 359 kts 85°
2026-05-04 13:54 55.80183 38.38145 15902 ft 357 kts 82°
2026-05-04 13:55 55.80555 38.42349 15893 ft 359 kts 76°
2026-05-04 13:55 55.81839 38.50503 17519 ft 362 kts 70°
2026-05-04 13:55 55.82610 38.54717 18256 ft 367 kts 69°
2026-05-04 13:56 55.83394 38.58937 18770 ft 373 kts 69°
2026-05-04 13:56 55.84172 38.63153 19007 ft 381 kts 69°
2026-05-04 13:56 55.85737 38.71612 20678 ft 379 kts 67°
2026-05-04 13:57 55.86709 38.75831 21087 ft 390 kts 64°
2026-05-04 13:57 55.87826 38.80128 21356 ft 404 kts 62°
2026-05-04 13:58 55.91553 38.93763 22524 ft 427 kts 62°
2026-05-04 13:58 55.94038 39.03042 24150 ft 425 kts 63°
2026-05-04 13:58 55.95195 39.07815 25005 ft 424 kts 66°
2026-05-04 13:59 55.96099 39.12747 25841 ft 424 kts 73°
2026-05-04 13:59 55.96674 39.17701 26659 ft 422 kts 78°
2026-05-04 13:59 55.97340 39.27536 28285 ft 414 kts 82°
2026-05-04 14:00 55.97586 39.32465 29119 ft 408 kts 82°
2026-05-04 14:00 55.98026 39.41789 30738 ft 394 kts 82°
2026-05-04 14:00 55.98218 39.45837 31447 ft 386 kts 82°
2026-05-04 14:01 55.98438 39.50423 32271 ft 376 kts 81°
2026-05-04 14:01 55.98652 39.54817 32767 ft 375 kts 80°
2026-05-04 14:01 55.99243 39.63745 32877 ft 389 kts 74°
2026-05-04 14:02 55.99918 39.68294 32878 ft 394 kts 66°
2026-05-04 14:02 56.02139 39.77155 32875 ft 410 kts 61°
2026-05-04 14:02 56.03132 39.81838 32874 ft 424 kts 70°
2026-05-04 14:03 56.03670 39.86654 32872 ft 437 kts 79°
2026-05-04 14:03 56.03854 39.92010 32871 ft 449 kts 85°
2026-05-04 14:03 56.03840 39.97113 32869 ft 458 kts 87°
2026-05-04 14:04 56.03621 40.13388 32872 ft 456 kts 87°
2026-05-04 14:04 56.03601 40.24316 32874 ft 457 kts 85°
2026-05-04 14:05 56.03685 40.40809 32876 ft 456 kts 85°
2026-05-04 14:06 56.03777 40.51761 32869 ft 459 kts 85°
2026-05-04 14:06 56.03870 40.62748 32873 ft 456 kts 84°
2026-05-04 14:07 56.03962 40.73791 32871 ft 459 kts 85°
2026-05-04 14:07 56.04039 40.84723 32877 ft 455 kts 85°
2026-05-04 14:08 56.04111 40.95832 32869 ft 458 kts 85°
2026-05-04 14:08 56.04169 41.06936 32870 ft 457 kts 85°
2026-05-04 14:09 56.04243 41.23685 32869 ft 458 kts 85°
2026-05-04 14:10 56.04289 41.40232 32878 ft 457 kts 85°
2026-05-04 14:10 56.04310 41.51281 32866 ft 458 kts 85°
2026-05-04 14:11 56.04322 41.62395 32870 ft 458 kts 85°
2026-05-04 14:11 56.04318 41.79010 32856 ft 459 kts 86°
2026-05-04 14:12 56.04303 41.90066 32865 ft 459 kts 86°
2026-05-04 14:13 56.04261 42.06353 32860 ft 456 kts 85°
2026-05-04 14:13 56.04222 42.17438 32866 ft 457 kts 85°
2026-05-04 14:14 56.04173 42.28724 32873 ft 459 kts 85°
2026-05-04 14:14 56.04079 42.45635 32881 ft 455 kts 85°
2026-05-04 14:15 56.03879 42.67849 32874 ft 459 kts 86°
2026-05-04 14:16 56.03666 42.83332 32876 ft 457 kts 86°
2026-05-04 14:17 56.03512 42.94275 32874 ft 477 kts 86°
2026-05-04 14:17 56.03428 43.00183 32868 ft 485 kts 86°
2026-05-04 14:18 56.03153 43.17260 32874 ft 483 kts 86°
2026-05-04 14:19 56.03160 43.40015 32860 ft 477 kts 79°
2026-05-04 14:19 56.03839 43.50911 32864 ft 474 kts 77°
2026-05-04 14:20 56.04664 43.62033 32872 ft 474 kts 76°
2026-05-04 14:20 56.05451 43.72888 32862 ft 478 kts 77°
2026-05-04 14:21 56.06588 43.89549 32858 ft 477 kts 78°
2026-05-04 14:21 56.07321 44.00795 32858 ft 476 kts 78°
2026-05-04 14:22 56.08023 44.11823 32859 ft 478 kts 78°
2026-05-04 14:22 56.08723 44.23043 32865 ft 475 kts 78°
2026-05-04 14:23 56.09768 44.40127 32870 ft 478 kts 78°
2026-05-04 14:24 56.10459 44.51642 32866 ft 476 kts 78°
2026-05-04 14:24 56.11129 44.63155 32868 ft 476 kts 78°
2026-05-04 14:25 56.11329 44.74673 32868 ft 484 kts 85°
2026-05-04 14:25 56.10925 44.91827 32869 ft 482 kts 88°
2026-05-04 14:26 56.10600 45.03068 32863 ft 484 kts 87°
2026-05-04 14:26 56.10298 45.13924 32868 ft 484 kts 87°
2026-05-04 14:27 56.10009 45.24858 32866 ft 484 kts 87°
2026-05-04 14:27 56.09724 45.36118 32863 ft 482 kts 86°
2026-05-04 14:28 56.09428 45.47872 32858 ft 482 kts 86°
2026-05-04 14:28 56.09120 45.59721 32866 ft 482 kts 86°
2026-05-04 14:29 56.08521 45.81475 32865 ft 464 kts 87°
2026-05-04 14:30 56.08213 45.91778 32865 ft 456 kts 87°
2026-05-04 14:31 56.07753 46.07466 32865 ft 459 kts 87°
2026-05-04 14:32 56.07088 46.28944 32869 ft 461 kts 87°
2026-05-04 14:32 56.06740 46.39639 32874 ft 460 kts 88°
2026-05-04 14:33 56.06144 46.50399 32875 ft 465 kts 94°
2026-05-04 14:33 56.04583 46.60892 32769 ft 472 kts 103°
2026-05-04 14:33 56.03565 46.65981 32546 ft 473 kts 106°
2026-05-04 14:34 56.02457 46.71124 32302 ft 472 kts 107°
2026-05-04 14:34 56.01314 46.76264 32064 ft 473 kts 107°
2026-05-04 14:34 56.00247 46.81024 31845 ft 475 kts 107°
2026-05-04 14:34 55.99107 46.86116 31613 ft 476 kts 107°
2026-05-04 14:35 55.97975 46.91184 31379 ft 475 kts 107°
2026-05-04 14:35 55.96846 46.96267 31143 ft 474 kts 107°
2026-05-04 14:35 55.95709 47.01410 30904 ft 476 kts 107°
2026-05-04 14:35 55.94577 47.06554 30653 ft 475 kts 107°
2026-05-04 14:36 55.93427 47.11784 30389 ft 472 kts 107°
2026-05-04 14:36 55.92254 47.17114 30119 ft 470 kts 106°
2026-05-04 14:36 55.91085 47.22424 29865 ft 469 kts 107°
2026-05-04 14:36 55.89948 47.27592 29597 ft 467 kts 107°
2026-05-04 14:37 55.88817 47.32722 29351 ft 462 kts 107°
2026-05-04 14:37 55.87717 47.37688 29049 ft 453 kts 107°
2026-05-04 14:37 55.86622 47.42629 28295 ft 454 kts 107°
2026-05-04 14:37 55.85527 47.47568 27763 ft 449 kts 107°
2026-05-04 14:38 55.84430 47.52504 27334 ft 442 kts 107°
2026-05-04 14:38 55.83335 47.57420 26533 ft 444 kts 107°
2026-05-04 14:38 55.82249 47.62294 26071 ft 438 kts 108°
2026-05-04 14:38 55.81185 47.67049 25538 ft 434 kts 109°
2026-05-04 14:39 55.80130 47.71762 24776 ft 435 kts 109°
2026-05-04 14:39 55.79064 47.76505 24427 ft 426 kts 109°
2026-05-04 14:39 55.78018 47.81146 23845 ft 429 kts 109°
2026-05-04 14:40 55.75983 47.90160 22265 ft 425 kts 109°
2026-05-04 14:40 55.74934 47.94793 21427 ft 421 kts 110°
2026-05-04 14:40 55.73995 47.98935 20673 ft 417 kts 109°
2026-05-04 14:40 55.73022 48.03212 19894 ft 413 kts 110°
2026-05-04 14:41 55.71974 48.07806 19063 ft 409 kts 110°
2026-05-04 14:41 55.71047 48.11863 18327 ft 405 kts 110°
2026-05-04 14:41 55.69070 48.20489 16755 ft 396 kts 110°
2026-05-04 14:42 55.67102 48.29050 15161 ft 387 kts 110°
2026-05-04 14:42 55.66106 48.33367 14341 ft 382 kts 110°
2026-05-04 14:42 55.65112 48.37662 13513 ft 378 kts 110°
2026-05-04 14:43 55.64135 48.41873 12715 ft 374 kts 111°
2026-05-04 14:43 55.63155 48.46083 11882 ft 370 kts 110°
2026-05-04 14:43 55.62110 48.50068 11070 ft 366 kts 115°
2026-05-04 14:43 55.60910 48.53950 10266 ft 363 kts 118°
2026-05-04 14:44 55.59654 48.57729 9457 ft 359 kts 120°
2026-05-04 14:44 55.58443 48.61274 8971 ft 346 kts 120°
2026-05-04 14:44 55.57291 48.64631 8897 ft 322 kts 120°
2026-05-04 14:44 55.56187 48.67867 8900 ft 298 kts 120°
2026-05-04 14:45 55.55164 48.70889 8858 ft 277 kts 120°
2026-05-04 14:45 55.54224 48.73679 8836 ft 264 kts 120°
2026-05-04 14:45 55.53318 48.76374 8863 ft 255 kts 120°
2026-05-04 14:45 55.52424 48.79044 8840 ft 255 kts 120°
2026-05-04 14:46 55.51611 48.81466 8898 ft 256 kts 120°
2026-05-04 14:46 55.50707 48.84154 8659 ft 257 kts 120°
2026-05-04 14:46 55.49810 48.86813 8490 ft 253 kts 120°
2026-05-04 14:46 55.48928 48.89428 8318 ft 252 kts 120°
2026-05-04 14:47 55.48041 48.92060 7976 ft 252 kts 120°
2026-05-04 14:47 55.47198 48.94556 7672 ft 246 kts 120°
2026-05-04 14:47 55.46397 48.96926 7423 ft 241 kts 120°
2026-05-04 14:47 55.45571 48.99361 7183 ft 236 kts 120°
2026-05-04 14:48 55.44772 49.01717 6947 ft 232 kts 120°
2026-05-04 14:48 55.43977 49.04059 6744 ft 231 kts 120°
2026-05-04 14:48 55.43219 49.06291 6428 ft 228 kts 120°
2026-05-04 14:48 55.42433 49.08615 6234 ft 224 kts 120°
2026-05-04 14:49 55.41652 49.10919 5951 ft 220 kts 121°
2026-05-04 14:49 55.40895 49.13134 5700 ft 217 kts 121°
2026-05-04 14:49 55.40227 49.15086 5550 ft 215 kts 121°
2026-05-04 14:49 55.39486 49.17260 5263 ft 213 kts 121°
2026-05-04 14:50 55.38739 49.19450 5022 ft 213 kts 121°
2026-05-04 14:50 55.37980 49.21673 4780 ft 214 kts 121°
2026-05-04 14:50 55.37221 49.23891 4539 ft 214 kts 121°
2026-05-04 14:50 55.36468 49.26096 4303 ft 215 kts 121°
2026-05-04 14:51 55.35728 49.28255 4112 ft 215 kts 121°
2026-05-04 14:51 55.35178 49.30312 4012 ft 210 kts 105°
2026-05-04 14:51 55.35103 49.32628 3991 ft 203 kts 75°
2026-05-04 14:51 55.35579 49.34807 4013 ft 201 kts 57°
2026-05-04 14:52 55.36415 49.36665 4004 ft 197 kts 37°
2026-05-04 14:52 55.37459 49.38025 3969 ft 195 kts 30°
2026-05-04 14:52 55.38495 49.39280 3989 ft 186 kts 31°
2026-05-04 14:52 55.39525 49.40581 4007 ft 185 kts 32°
2026-05-04 14:53 55.40552 49.41913 4005 ft 185 kts 33°
2026-05-04 14:53 55.41578 49.43244 3990 ft 185 kts 32°
2026-05-04 14:53 55.42633 49.44588 3978 ft 187 kts 31°
2026-05-04 14:53 55.43696 49.45874 3903 ft 188 kts 30°
2026-05-04 14:54 55.44770 49.47158 3743 ft 182 kts 30°
2026-05-04 14:54 55.45731 49.48313 3531 ft 183 kts 30°
2026-05-04 14:54 55.46817 49.49614 3020 ft 197 kts 30°
2026-05-04 14:54 55.47935 49.50957 2802 ft 190 kts 29°
2026-05-04 14:55 55.49048 49.51938 2772 ft 168 kts
2026-05-04 14:55 55.50125 49.51926 2724 ft 146 kts 342°
2026-05-04 14:55 55.51028 49.51377 2691 ft 135 kts 329°
2026-05-04 14:55 55.51790 49.50515 2708 ft 131 kts 316°
2026-05-04 14:56 55.52399 49.49383 2719 ft 133 kts 304°
2026-05-04 14:56 55.52831 49.48157 2696 ft 130 kts 298°
2026-05-04 14:56 55.53303 49.46829 2648 ft 133 kts 300°
2026-05-04 14:56 55.53759 49.45598 2476 ft 133 kts 301°
2026-05-04 14:57 55.54251 49.44295 2309 ft 130 kts 302°
2026-05-04 14:57 55.54729 49.43043 2144 ft 130 kts 302°
2026-05-04 14:57 55.55214 49.41781 1977 ft 130 kts 302°
2026-05-04 14:57 55.55686 49.40560 1816 ft 129 kts 302°
2026-05-04 14:58 55.56171 49.39309 1653 ft 129 kts 302°
2026-05-04 14:58 55.56651 49.38074 1490 ft 130 kts 302°
2026-05-04 14:58 55.57113 49.36885 1337 ft 130 kts 302°
2026-05-04 14:58 55.57523 49.35829 1200 ft 130 kts 302°
2026-05-04 14:59 55.57932 49.34781 1064 ft 130 kts 302°
2026-05-04 14:59 55.58420 49.33524 901 ft 131 kts 302°
2026-05-04 14:59 55.59383 49.31076 585 ft 131 kts 303°
2026-05-04 15:00 55.59867 49.29841 443 ft 131 kts 303°
2026-05-04 15:00 55.60324 49.28659 396 ft 109 kts 307°
2026-05-04 15:00 55.60618 49.27895 386 ft 53 kts 305°
2026-05-04 15:01 55.60916 49.27138 373 ft 32 kts 305°
2026-05-04 15:01 55.61018 49.26875 368 ft 19 kts 303°
2026-05-04 15:01 55.61097 49.26786 366 ft 12 kts 13°
2026-05-04 15:01 55.61164 49.26855 367 ft 10 kts 34°
2026-05-04 15:02 55.61208 49.26916 369 ft 8 kts 47°
2026-05-04 15:02 55.61221 49.26990 370 ft 5 kts 105°
2026-05-04 15:02 55.61202 49.27047 371 ft 10 kts 122°
2026-05-04 15:02 55.61166 49.27141 373 ft 11 kts 124°
2026-05-04 15:03 55.61132 49.27230 375 ft 8 kts 124°
2026-05-04 15:03 55.61105 49.27299 376 ft 8 kts 124°
2026-05-04 15:03 55.61071 49.27387 378 ft 11 kts 124°
2026-05-04 15:03 55.61036 49.27478 379 ft 9 kts 124°
2026-05-04 15:04 55.61008 49.27551 381 ft 7 kts 124°
2026-05-04 15:04 55.60986 49.27607 382 ft 7 kts 124°
2026-05-04 15:04 55.60925 49.27765 385 ft 25 kts 125°